[[{"header":{"parameterUnit":"m.s-1","parameterCategory":2,"la1":30.2991,"la2":30.254,"lo1":-89.0895,"lo2":-89.0444,"dy":0.0017,"dx":0.0017,"nx":28,"ny":28,"refTime":"2025-11-27T09:00:00:Z","depth":"0","parameterNumber":2,"parameterNumberName":"U-component_of_CURRENTS"},"data":[0,0,0,0,0,0,0,0,0,0,0,0,0,0,0,0,0,0,0,0,0,0,0,0,0,0,0,0,0,0,0,0,0,0,0,0,0,0,0,0,0,0,0,0,0,0,0,0,0,0,0,0,0,0,0,0,0,0,-0.0111,-0.0111,0,-0.01,-0.01,-0.01,-0.0086,-0.0086,-0.0086,-0.0086,-0.0096,-0.0096,-0.0097,0,0,0,0,0,0,0,0,0,0,0,0,0,-0.0124,-0.0124,-0.0111,-0.0111,-0.0111,-0.01,-0.01,-0.01,-0.0087,-0.0086,-0.0086,-0.0086,-0.0096,-0.0096,-0.0097,0,0,0,0,0,0,0,0,0,0,0,0,0,-0.0116,-0.0124,-0.0111,-0.0103,-0.0102,-0.01,-0.01,-0.01,-0.0087,-0.0086,-0.0086,-0.0086,-0.0095,-0.0096,-0.0097,-0.0107,0,0,-0.0099,-0.0099,0,0,0,0,0,0,0,0,-0.0116,-0.0116,-0.0105,-0.0104,-0.0103,-0.0094,-0.0108,-0.0103,-0.0087,-0.0093,-0.0086,-0.0086,-0.0098,-0.0098,-0.0096,-0.0107,-0.0108,-0.0099,-0.0099,-0.0099,-0.01,0,0,0,0,0,0,0,-0.0117,-0.0116,-0.0107,-0.0104,-0.0103,-0.0101,-0.0099,-0.0107,-0.0097,-0.0092,-0.0091,-0.009,-0.0097,-0.0095,-0.0096,-0.0108,-0.0099,-0.0099,-0.01,-0.01,-0.0119,-0.0119,0,0,0,0,0,0,-0.0119,-0.0116,-0.0107,-0.0107,-0.0109,-0.0101,-0.0099,-0.0097,-0.0097,-0.0096,-0.009,-0.0089,-0.0094,-0.0096,-0.0097,-0.0097,-0.0099,-0.01,-0.01,-0.0119,-0.0119,-0.0119,0,0,0,0,0,0,-0.0119,-0.0118,-0.0108,-0.0111,-0.011,-0.0101,-0.0099,-0.0097,-0.0095,-0.0095,-0.0095,-0.0089,-0.0094,-0.0096,-0.0098,-0.0098,-0.01,-0.0101,-0.0119,-0.0119,-0.0119,-0.0105,0,0,0,0,0,0,-0.0119,-0.0118,-0.0118,-0.0111,-0.011,-0.0106,-0.0099,-0.0097,-0.0095,-0.0093,-0.0094,-0.0095,-0.0094,-0.0097,-0.0098,-0.0099,-0.0102,-0.0118,-0.0119,-0.0119,-0.0105,-0.0105,-0.0104,0,0,0,0,0,-0.012,-0.012,-0.0118,-0.0117,-0.011,-0.0106,-0.0105,-0.0097,-0.0095,-0.0094,-0.0091,-0.0095,-0.0099,-0.0097,-0.0099,-0.01,-0.0118,-0.0119,-0.0119,-0.0106,-0.0105,-0.0104,0,0,0,0,0,0,-0.0127,-0.0119,-0.0117,-0.0115,-0.0111,-0.0103,-0.0102,-0.0099,-0.0096,-0.0095,-0.0095,-0.0096,-0.0097,-0.0103,-0.01,-0.0106,-0.011,-0.0111,-0.0099,-0.0099,-0.0098,-0.0095,-0.0102,0,0,0,0,0,-0.0129,-0.0125,-0.012,-0.0118,-0.0116,-0.011,-0.0108,-0.0103,-0.01,-0.0098,-0.0097,-0.0099,-0.01,-0.0102,-0.0104,-0.011,-0.0113,-0.0112,-0.0112,-0.0111,-0.011,-0.0114,-0.0113,-0.012,-0.012,-0.012,0,0,-0.0131,-0.0126,-0.0124,-0.0119,-0.0115,-0.011,-0.0108,-0.0104,-0.0099,-0.0101,-0.0095,-0.0096,-0.0101,-0.0101,-0.0103,-0.0105,-0.011,-0.0111,-0.0111,-0.011,-0.0114,-0.0113,-0.0113,-0.012,-0.012,-0.012,0,0,-0.0131,-0.0129,-0.0125,-0.0122,-0.0116,-0.0111,-0.0111,-0.0104,-0.01,-0.0096,-0.0094,-0.0095,-0.0099,-0.0098,-0.01,-0.01,-0.0105,-0.0104,-0.0099,-0.0103,-0.0102,-0.0102,-0.0101,-0.01,-0.0105,-0.0105,-0.0105,0,-0.0133,-0.0127,-0.0124,-0.012,-0.0115,-0.0112,-0.0107,-0.0103,-0.0097,-0.0094,-0.0093,-0.0093,-0.0097,-0.0096,-0.0094,-0.0099,-0.01,-0.01,-0.0102,-0.0101,-0.0101,-0.01,-0.01,-0.0105,-0.0105,-0.0105,-0.0105,0,-0.0129,-0.0124,-0.0122,-0.0113,-0.011,-0.0105,-0.0099,-0.0096,-0.0091,-0.0087,-0.0084,-0.0086,-0.0086,-0.0089,-0.009,-0.0091,-0.0093,-0.0098,-0.0102,-0.0099,-0.0099,-0.0099,-0.0104,-0.0104,-0.0104,-0.0104,0,0,-0.0128,-0.012,-0.0118,-0.0112,-0.0105,-0.01,-0.0094,-0.0087,-0.0082,-0.0078,-0.0072,-0.0074,-0.0075,-0.0077,-0.0081,-0.0085,-0.0083,-0.009,-0.0091,-0.0086,-0.0087,-0.0082,-0.0082,-0.0088,-0.0088,-0.0088,-0.0086,0,-0.0122,-0.0113,-0.011,-0.0099,-0.0093,-0.0089,-0.0083,-0.0077,-0.0073,-0.0067,-0.0069,-0.0066,-0.0071,-0.007,-0.0074,-0.0081,-0.0082,-0.0083,-0.0093,-0.0093,-0.0087,-0.0081,-0.0117,-0.0117,-0.0086,-0.0086,-0.0086,0,-0.0115,-0.0109,-0.0098,-0.0089,-0.0086,-0.0079,-0.0068,-0.0063,-0.0058,-0.0055,-0.0054,-0.0055,-0.0057,-0.0063,-0.007,-0.007,-0.0077,-0.0082,-0.0083,-0.0083,-0.0088,-0.0116,-0.0118,-0.0159,-0.0085,-0.0085,-0.0085,0,-0.0108,-0.0099,-0.0089,-0.0085,-0.0076,-0.007,-0.0065,-0.0058,-0.0052,-0.0047,-0.0043,-0.0046,-0.0046,-0.0055,-0.0064,-0.0068,-0.0072,-0.008,-0.0081,-0.0081,-0.0115,-0.0118,-0.0156,-0.0086,-0.0086,-0.0086,-0.0086,0,-0.0099,-0.009,-0.0084,-0.0078,-0.0065,-0.0063,-0.005,-0.0046,-0.0041,-0.0033,-0.0037,-0.0033,-0.0044,-0.0048,-0.0059,-0.0066,-0.0068,-0.0077,-0.008,-0.0111,-0.0113,-0.0154,-0.0165,-0.0085,-0.0085,-0.0086,-0.0086,0,-0.0088,-0.0085,-0.0073,-0.0064,-0.006,-0.005,-0.0039,-0.003,-0.0029,-0.002,-0.0018,-0.002,-0.0025,-0.0035,-0.0048,-0.0057,-0.008,-0.007,-0.0101,-0.0107,-0.0144,-0.0153,-0.0141,-0.0139,-0.0071,-0.0071,-0.0071,0,-0.0081,-0.0073,-0.0059,-0.0051,-0.0045,-0.0033,-0.0024,-0.0021,-0.0014,-0.0013,-0.0007,-0.001,-0.0014,-0.0028,-0.0048,-0.0064,-0.0077,-0.0098,-0.0111,-0.0148,-0.0161,-0.0135,-0.0132,-0.0153,-0.0153,-0.0154,-0.0154,0,-0.0065,-0.0059,-0.0047,-0.0034,-0.0022,-0.0011,-0.0,0.0004,0.0006,0.0004,0.0,-0.0006,-0.002,-0.0057,-0.0072,-0.0084,-0.0118,-0.0107,-0.0146,-0.0225,-0.02,-0.0199,-0.0147,-0.0158,-0.0158,-0.0158,-0.0157,-0.0157,-0.0051,-0.0038,-0.0026,-0.0013,-0.0002,0.0007,0.0009,0.0012,0.0012,-0.0012,-0.0006,-0.0054,-0.0096,-0.0126,-0.0126,-0.0182,-0.0136,-0.0211,-0.0218,-0.0186,-0.019,-0.0137,-0.0149,-0.0148,-0.0148,-0.0148,-0.0147,0,-0.0042,-0.0025,-0.0008,0.0006,0.0014,0.0016,0.0021,0.0007,-0.0007,-0.0053,-0.0075,-0.0177,-0.022,-0.0258,-0.0316,-0.0319,-0.0288,-0.0319,-0.0318,-0.0308,-0.0278,-0.029,-0.0333,-0.0333,-0.0333,-0.0333,-0.0333,-0.0333,-0.0036,-0.0017,-0.0008,0.0012,0.002,0.0016,0.0011,-0.002,-0.0068,-0.0174,-0.0267,-0.033,-0.0482,-0.0505,-0.0514,-0.0474,-0.0443,-0.0413,-0.0388,-0.0416,-0.0408,-0.0399,-0.0415,-0.0483,-0.0483,-0.0419,-0.0419,-0.0419]},{"header":{"parameterUnit":"m.s-1","parameterCategory":2,"la1":30.2991,"la2":30.254,"lo1":-89.0895,"lo2":-89.0444,"dy":0.0017,"dx":0.0017,"nx":28,"ny":28,"refTime":"2025-11-27T09:00:00:Z","depth":"0","parameterNumber":3,"parameterNumberName":"V-component_of_CURRENTS"},"data":[0,0,0,0,0,0,0,0,0,0,0,0,0,0,0,0,0,0,0,0,0,0,0,0,0,0,0,0,0,0,0,0,0,0,0,0,0,0,0,0,0,0,0,0,0,0,0,0,0,0,0,0,0,0,0,0,0,0,-0.0453,-0.0453,0,-0.0442,-0.0442,-0.0442,-0.0436,-0.0436,-0.0436,-0.0436,-0.0434,-0.0434,-0.0434,0,0,0,0,0,0,0,0,0,0,0,0,0,-0.0462,-0.0462,-0.0453,-0.0453,-0.0452,-0.0442,-0.0442,-0.0441,-0.0436,-0.0436,-0.0436,-0.0436,-0.0434,-0.0434,-0.0434,0,0,0,0,0,0,0,0,0,0,0,0,0,-0.0455,-0.0462,-0.0453,-0.0449,-0.0448,-0.0442,-0.0442,-0.0441,-0.0436,-0.0436,-0.0436,-0.0436,-0.0434,-0.0434,-0.0433,-0.0431,0,0,-0.0433,-0.0433,0,0,0,0,0,0,0,0,-0.0455,-0.0454,-0.0449,-0.0449,-0.0449,-0.0441,-0.0444,-0.0439,-0.0436,-0.044,-0.0436,-0.0436,-0.0437,-0.0437,-0.0434,-0.0431,-0.0431,-0.0433,-0.0433,-0.0433,-0.0433,0,0,0,0,0,0,0,-0.0456,-0.0455,-0.0448,-0.0449,-0.0449,-0.0446,-0.0445,-0.0443,-0.0438,-0.0439,-0.0439,-0.0439,-0.0437,-0.0434,-0.0434,-0.0431,-0.0433,-0.0433,-0.0433,-0.0433,-0.0437,-0.0437,0,0,0,0,0,0,-0.0459,-0.0455,-0.0448,-0.0447,-0.0453,-0.0445,-0.0444,-0.0443,-0.0438,-0.0437,-0.0439,-0.0439,-0.0434,-0.0434,-0.0433,-0.0434,-0.0433,-0.0433,-0.0433,-0.0436,-0.0437,-0.0437,0,0,0,0,0,0,-0.0459,-0.0458,-0.0449,-0.0452,-0.045,-0.0445,-0.0443,-0.0442,-0.0439,-0.0437,-0.0437,-0.0437,-0.0434,-0.0434,-0.0435,-0.0434,-0.0433,-0.0433,-0.0436,-0.0437,-0.0437,-0.0434,0,0,0,0,0,0,-0.0459,-0.0458,-0.0456,-0.0452,-0.045,-0.0443,-0.0443,-0.0442,-0.0439,-0.0439,-0.0435,-0.0435,-0.0434,-0.0435,-0.0435,-0.0434,-0.0432,-0.0436,-0.0436,-0.0437,-0.0434,-0.0434,-0.0434,0,0,0,0,0,-0.0459,-0.0456,-0.0456,-0.0455,-0.0449,-0.0443,-0.0442,-0.0438,-0.0439,-0.0436,-0.0437,-0.0435,-0.0437,-0.0435,-0.0434,-0.0434,-0.0436,-0.0436,-0.0437,-0.0434,-0.0434,-0.0434,0,0,0,0,0,0,-0.0458,-0.0455,-0.0455,-0.0451,-0.0448,-0.0443,-0.0439,-0.0438,-0.0436,-0.0437,-0.0436,-0.0436,-0.0437,-0.0437,-0.0435,-0.0437,-0.0437,-0.0437,-0.0434,-0.0435,-0.0435,-0.0433,-0.0432,0,0,0,0,0,-0.0458,-0.0455,-0.0452,-0.0448,-0.0447,-0.0444,-0.0441,-0.0439,-0.0438,-0.0437,-0.0435,-0.0436,-0.0438,-0.0438,-0.0439,-0.0438,-0.0441,-0.0439,-0.0439,-0.0439,-0.0438,-0.0446,-0.0447,-0.0438,-0.0438,-0.0438,0,0,-0.0455,-0.0454,-0.0452,-0.0448,-0.0445,-0.0441,-0.0442,-0.0438,-0.0435,-0.0437,-0.0432,-0.0436,-0.0439,-0.0439,-0.044,-0.0439,-0.0443,-0.044,-0.044,-0.0439,-0.0447,-0.0448,-0.0448,-0.0439,-0.0439,-0.0439,0,0,-0.0451,-0.0449,-0.0447,-0.0444,-0.0442,-0.0439,-0.0438,-0.0434,-0.0432,-0.0429,-0.0433,-0.0437,-0.0435,-0.0439,-0.0441,-0.0443,-0.0444,-0.0444,-0.0443,-0.0451,-0.0451,-0.0452,-0.0455,-0.0456,-0.0444,-0.0444,-0.0444,0,-0.0448,-0.0446,-0.0445,-0.0442,-0.0439,-0.0438,-0.0434,-0.0431,-0.0427,-0.0427,-0.0427,-0.0433,-0.0435,-0.0441,-0.0442,-0.0443,-0.0447,-0.044,-0.0451,-0.0451,-0.0452,-0.0455,-0.0456,-0.0444,-0.0444,-0.0444,-0.0444,0,-0.0444,-0.0441,-0.0439,-0.0436,-0.0432,-0.0428,-0.0425,-0.0422,-0.0421,-0.042,-0.0424,-0.0429,-0.0433,-0.0435,-0.0439,-0.0446,-0.0447,-0.045,-0.0449,-0.0453,-0.0455,-0.0457,-0.0444,-0.0444,-0.0444,-0.0444,0,0,-0.0439,-0.0437,-0.0436,-0.0434,-0.0429,-0.0425,-0.042,-0.0417,-0.0417,-0.0416,-0.0416,-0.0424,-0.0429,-0.0432,-0.0439,-0.0446,-0.0454,-0.045,-0.045,-0.045,-0.0469,-0.0485,-0.0488,-0.046,-0.046,-0.046,-0.0468,0,-0.0436,-0.0432,-0.043,-0.0423,-0.042,-0.0417,-0.0413,-0.041,-0.041,-0.041,-0.0418,-0.0422,-0.0427,-0.0432,-0.044,-0.0451,-0.0457,-0.0451,-0.0467,-0.0467,-0.0479,-0.049,-0.0554,-0.0567,-0.0469,-0.0469,-0.0469,0,-0.0433,-0.0431,-0.0426,-0.0419,-0.0417,-0.0412,-0.0407,-0.0403,-0.0405,-0.0407,-0.0413,-0.0418,-0.0429,-0.0433,-0.0452,-0.0448,-0.0458,-0.0466,-0.0467,-0.0483,-0.0486,-0.0548,-0.0573,-0.0663,-0.0471,-0.0471,-0.0471,0,-0.0433,-0.0426,-0.0423,-0.042,-0.0413,-0.041,-0.0405,-0.0404,-0.0403,-0.0406,-0.0408,-0.0419,-0.0425,-0.0439,-0.0455,-0.0455,-0.0474,-0.0476,-0.0499,-0.05,-0.0558,-0.0564,-0.067,-0.049,-0.049,-0.049,-0.049,0,-0.043,-0.0426,-0.0423,-0.0421,-0.0414,-0.0409,-0.0404,-0.0402,-0.0403,-0.0406,-0.0408,-0.0415,-0.0428,-0.044,-0.0454,-0.0481,-0.0474,-0.0501,-0.0506,-0.0558,-0.0564,-0.0647,-0.0668,-0.049,-0.049,-0.049,-0.049,0,-0.043,-0.0429,-0.0424,-0.0419,-0.0415,-0.0411,-0.0402,-0.0401,-0.0401,-0.0405,-0.0407,-0.0413,-0.0431,-0.0443,-0.0465,-0.0482,-0.0553,-0.0513,-0.057,-0.0582,-0.0688,-0.0705,-0.074,-0.0801,-0.0543,-0.0543,-0.0544,0,-0.0427,-0.0427,-0.0424,-0.0421,-0.0417,-0.041,-0.0406,-0.0402,-0.0403,-0.0408,-0.0413,-0.0425,-0.0444,-0.0477,-0.0514,-0.0544,-0.0582,-0.061,-0.0623,-0.0709,-0.0731,-0.0705,-0.0753,-0.0698,-0.07,-0.0701,-0.0702,0,-0.0423,-0.0426,-0.0423,-0.0422,-0.0417,-0.041,-0.0405,-0.0411,-0.0412,-0.0425,-0.0444,-0.0459,-0.0493,-0.0568,-0.0599,-0.0615,-0.0688,-0.0637,-0.0723,-0.086,-0.0843,-0.09,-0.0669,-0.0714,-0.0713,-0.0712,-0.0711,-0.0711,-0.0421,-0.0419,-0.0422,-0.0421,-0.0415,-0.0415,-0.0423,-0.0436,-0.0455,-0.0508,-0.049,-0.0569,-0.0646,-0.0708,-0.0723,-0.0838,-0.0775,-0.0883,-0.0894,-0.0857,-0.0931,-0.0719,-0.077,-0.0769,-0.0768,-0.0768,-0.0767,0,-0.0419,-0.0419,-0.0419,-0.0418,-0.0417,-0.0413,-0.0426,-0.0463,-0.0512,-0.0593,-0.0634,-0.0789,-0.0892,-0.0966,-0.1089,-0.1119,-0.1108,-0.1134,-0.1146,-0.1182,-0.101,-0.1037,-0.1154,-0.1154,-0.1154,-0.1153,-0.1153,-0.1153,-0.0419,-0.0419,-0.0423,-0.0425,-0.0423,-0.0443,-0.046,-0.0536,-0.0619,-0.0811,-0.0949,-0.1033,-0.1195,-0.13,-0.1402,-0.1378,-0.1431,-0.1371,-0.1397,-0.1323,-0.1301,-0.128,-0.1314,-0.1487,-0.1487,-0.1594,-0.1596,-0.1597]}],[{"header":{"parameterUnit":"m.s-1","parameterCategory":2,"la1":30.2991,"la2":30.254,"lo1":-89.0895,"lo2":-89.0444,"dy":0.0017,"dx":0.0017,"nx":28,"ny":28,"refTime":"2025-11-27T09:00:00:Z","depth":"2","parameterNumber":2,"parameterNumberName":"U-component_of_CURRENTS"},"data":[0,0,0,0,0,0,0,0,0,0,0,0,0,0,0,0,0,0,0,0,0,0,0,0,0,0,0,0,0,0,0,0,0,0,0,0,0,0,0,0,0,0,0,0,0,0,0,0,0,0,0,0,0,0,0,0,0,0,-0.008,-0.008,0,-0.007,-0.007,-0.007,-0.0058,-0.0057,-0.0057,-0.0057,-0.0066,-0.0067,-0.0067,0,0,0,0,0,0,0,0,0,0,0,0,0,-0.009,-0.009,-0.008,-0.008,-0.0079,-0.007,-0.007,-0.007,-0.0058,-0.0057,-0.0057,-0.0057,-0.0066,-0.0067,-0.0067,0,0,0,0,0,0,0,0,0,0,0,0,0,-0.0084,-0.009,-0.008,-0.0072,-0.0072,-0.007,-0.007,-0.007,-0.0058,-0.0057,-0.0057,-0.0057,-0.0066,-0.0067,-0.0067,-0.0077,0,0,-0.0069,-0.0069,0,0,0,0,0,0,0,0,-0.0084,-0.0083,-0.0074,-0.0073,-0.0072,-0.0065,-0.0077,-0.0073,-0.0058,-0.0063,-0.0057,-0.0057,-0.0068,-0.0068,-0.0067,-0.0077,-0.0078,-0.0069,-0.007,-0.007,-0.007,0,0,0,0,0,0,0,-0.0085,-0.0084,-0.0076,-0.0073,-0.0072,-0.007,-0.0069,-0.0076,-0.0067,-0.0062,-0.0061,-0.0061,-0.0067,-0.0066,-0.0067,-0.0078,-0.0069,-0.007,-0.007,-0.007,-0.0088,-0.0088,0,0,0,0,0,0,-0.0086,-0.0084,-0.0076,-0.0075,-0.0078,-0.007,-0.0069,-0.0067,-0.0067,-0.0066,-0.0061,-0.006,-0.0065,-0.0066,-0.0067,-0.0068,-0.007,-0.007,-0.0071,-0.0088,-0.0088,-0.0088,0,0,0,0,0,0,-0.0086,-0.0085,-0.0076,-0.008,-0.0078,-0.0071,-0.0069,-0.0067,-0.0065,-0.0065,-0.0065,-0.006,-0.0065,-0.0066,-0.0068,-0.0068,-0.0071,-0.0071,-0.0088,-0.0088,-0.0088,-0.0076,0,0,0,0,0,0,-0.0087,-0.0086,-0.0086,-0.008,-0.0078,-0.0075,-0.0069,-0.0067,-0.0065,-0.0064,-0.0065,-0.0066,-0.0065,-0.0067,-0.0069,-0.0069,-0.0072,-0.0088,-0.0088,-0.0088,-0.0076,-0.0075,-0.0075,0,0,0,0,0,-0.0087,-0.0088,-0.0086,-0.0085,-0.0079,-0.0075,-0.0074,-0.0067,-0.0066,-0.0065,-0.0062,-0.0065,-0.007,-0.0068,-0.007,-0.007,-0.0088,-0.0088,-0.0088,-0.0076,-0.0075,-0.0075,0,0,0,0,0,0,-0.0094,-0.0086,-0.0084,-0.0083,-0.0079,-0.0073,-0.0072,-0.0069,-0.0067,-0.0066,-0.0066,-0.0066,-0.0067,-0.0073,-0.0071,-0.0076,-0.008,-0.008,-0.007,-0.0069,-0.0069,-0.0066,-0.0072,0,0,0,0,0,-0.0096,-0.0092,-0.0087,-0.0086,-0.0084,-0.0079,-0.0078,-0.0073,-0.007,-0.0068,-0.0068,-0.0069,-0.0071,-0.0073,-0.0074,-0.008,-0.0082,-0.0082,-0.0082,-0.0081,-0.008,-0.0083,-0.0083,-0.0089,-0.0089,-0.0089,0,0,-0.0098,-0.0094,-0.0091,-0.0087,-0.0083,-0.0079,-0.0077,-0.0074,-0.0069,-0.0071,-0.0065,-0.0067,-0.0071,-0.0071,-0.0073,-0.0076,-0.008,-0.0081,-0.0081,-0.008,-0.0084,-0.0083,-0.0082,-0.0089,-0.0089,-0.0089,0,0,-0.0098,-0.0096,-0.0092,-0.0089,-0.0084,-0.008,-0.008,-0.0074,-0.007,-0.0067,-0.0065,-0.0066,-0.007,-0.0069,-0.0071,-0.0071,-0.0076,-0.0075,-0.007,-0.0074,-0.0073,-0.0073,-0.0072,-0.0071,-0.0076,-0.0076,-0.0076,0,-0.01,-0.0094,-0.0091,-0.0087,-0.0083,-0.0081,-0.0076,-0.0073,-0.0067,-0.0065,-0.0064,-0.0064,-0.0068,-0.0067,-0.0065,-0.007,-0.0071,-0.0071,-0.0072,-0.0072,-0.0072,-0.0071,-0.0071,-0.0075,-0.0075,-0.0075,-0.0076,0,-0.0095,-0.0091,-0.0089,-0.0081,-0.0078,-0.0073,-0.0069,-0.0065,-0.0062,-0.0058,-0.0055,-0.0057,-0.0057,-0.006,-0.0062,-0.0063,-0.0064,-0.0069,-0.0072,-0.007,-0.007,-0.007,-0.0075,-0.0075,-0.0075,-0.0075,0,0,-0.0094,-0.0087,-0.0085,-0.0079,-0.0073,-0.0069,-0.0064,-0.0057,-0.0052,-0.005,-0.0044,-0.0046,-0.0047,-0.0049,-0.0053,-0.0057,-0.0055,-0.0062,-0.0062,-0.0058,-0.0059,-0.0054,-0.0054,-0.006,-0.006,-0.006,-0.0058,0,-0.0089,-0.008,-0.0077,-0.0067,-0.0061,-0.0058,-0.0052,-0.0047,-0.0044,-0.0039,-0.0041,-0.0038,-0.0043,-0.0043,-0.0047,-0.0053,-0.0055,-0.0055,-0.0064,-0.0064,-0.0058,-0.0053,-0.0037,-0.0033,-0.0058,-0.0058,-0.0058,0,-0.0081,-0.0076,-0.0065,-0.0056,-0.0054,-0.0048,-0.0038,-0.0033,-0.0029,-0.0027,-0.0026,-0.0028,-0.003,-0.0036,-0.0043,-0.0043,-0.0049,-0.0055,-0.0055,-0.0055,-0.006,-0.004,-0.0032,-0.0057,-0.0057,-0.0057,-0.0057,0,-0.0074,-0.0066,-0.0056,-0.0053,-0.0044,-0.0039,-0.0034,-0.0029,-0.0023,-0.002,-0.0016,-0.0019,-0.0019,-0.0028,-0.0037,-0.0041,-0.0045,-0.0052,-0.0053,-0.0053,-0.0043,-0.0041,-0.0057,-0.0057,-0.0057,-0.0057,-0.0057,0,-0.0066,-0.0057,-0.0052,-0.0045,-0.0034,-0.0032,-0.002,-0.0017,-0.0012,-0.0005,-0.0009,-0.0006,-0.0018,-0.0021,-0.0032,-0.0039,-0.0041,-0.005,-0.0052,-0.0038,-0.0036,-0.0063,-0.0063,-0.0057,-0.0057,-0.0057,-0.0057,0,-0.0055,-0.0053,-0.004,-0.0032,-0.0028,-0.0019,-0.0008,-0.0001,-0.0,0.0008,0.001,0.0006,0.0001,-0.0009,-0.0022,-0.003,-0.004,-0.0042,-0.0022,-0.0022,-0.0047,-0.0047,-0.0044,-0.0044,-0.0043,-0.0043,-0.0043,0,-0.0048,-0.004,-0.0027,-0.0019,-0.0014,-0.0002,0.0007,0.0009,0.0015,0.0016,0.0021,0.0018,0.0014,0.0001,-0.0004,-0.0015,-0.0032,-0.0017,-0.0022,-0.0043,-0.0046,-0.0046,-0.0046,-0.0002,-0.0002,-0.0002,-0.0001,0,-0.0032,-0.0026,-0.0015,-0.0002,0.0009,0.002,0.003,0.0035,0.0036,0.0035,0.0031,0.0026,0.0024,0.0023,0.0015,0.0004,-0.0013,-0.001,-0.0035,-0.001,-0.0004,-0.0007,-0.0008,0.0002,0.0001,0.0001,0.0001,0.0001,-0.0018,-0.0006,0.0007,0.0018,0.0029,0.0038,0.004,0.0053,0.0056,0.0054,0.0046,0.0032,0.0041,0.003,0.0029,0.0019,0.0013,0.0001,0.0,-0.0001,0.0002,0.0007,0.0016,0.0016,0.0016,0.0016,0.0016,0,-0.0002,0.0007,0.0024,0.0037,0.0051,0.0047,0.0051,0.0057,0.006,0.0052,0.0049,0.0043,0.0049,0.0039,0.0042,0.0042,0.0038,0.0026,0.0028,0.0026,0.0023,0.0027,0.0049,0.0048,0.0048,0.0048,0,0,0.0006,0.0026,0.0035,0.0055,0.0058,0.0064,0.006,0.0066,0.0057,0.0054,0.0034,0.0041,0.0033,0.004,0.0054,0.0048,0.0026,0.0039,0.0016,0.0015,0.0013,0.0017,0.0021,0,0,0,0,0]},{"header":{"parameterUnit":"m.s-1","parameterCategory":2,"la1":30.2991,"la2":30.254,"lo1":-89.0895,"lo2":-89.0444,"dy":0.0017,"dx":0.0017,"nx":28,"ny":28,"refTime":"2025-11-27T09:00:00:Z","depth":"2","parameterNumber":3,"parameterNumberName":"V-component_of_CURRENTS"},"data":[0,0,0,0,0,0,0,0,0,0,0,0,0,0,0,0,0,0,0,0,0,0,0,0,0,0,0,0,0,0,0,0,0,0,0,0,0,0,0,0,0,0,0,0,0,0,0,0,0,0,0,0,0,0,0,0,0,0,-0.0383,-0.0383,0,-0.0372,-0.0372,-0.0372,-0.0367,-0.0367,-0.0367,-0.0367,-0.0366,-0.0365,-0.0365,0,0,0,0,0,0,0,0,0,0,0,0,0,-0.0392,-0.0392,-0.0383,-0.0383,-0.0383,-0.0372,-0.0372,-0.0372,-0.0367,-0.0367,-0.0367,-0.0367,-0.0366,-0.0365,-0.0365,0,0,0,0,0,0,0,0,0,0,0,0,0,-0.0385,-0.0392,-0.0383,-0.0379,-0.0379,-0.0372,-0.0372,-0.0372,-0.0367,-0.0367,-0.0367,-0.0367,-0.0366,-0.0365,-0.0365,-0.0362,0,0,-0.0365,-0.0365,0,0,0,0,0,0,0,0,-0.0385,-0.0384,-0.038,-0.038,-0.0379,-0.0371,-0.0375,-0.0369,-0.0367,-0.0371,-0.0367,-0.0367,-0.0369,-0.0368,-0.0365,-0.0362,-0.0362,-0.0365,-0.0365,-0.0365,-0.0365,0,0,0,0,0,0,0,-0.0386,-0.0385,-0.0378,-0.038,-0.0379,-0.0376,-0.0375,-0.0373,-0.0369,-0.037,-0.037,-0.037,-0.0369,-0.0365,-0.0365,-0.0362,-0.0365,-0.0365,-0.0365,-0.0365,-0.0368,-0.0368,0,0,0,0,0,0,-0.0389,-0.0385,-0.0378,-0.0378,-0.0383,-0.0376,-0.0375,-0.0373,-0.0369,-0.0368,-0.037,-0.037,-0.0365,-0.0365,-0.0365,-0.0366,-0.0365,-0.0364,-0.0364,-0.0368,-0.0368,-0.0368,0,0,0,0,0,0,-0.0389,-0.0388,-0.0379,-0.0382,-0.038,-0.0376,-0.0374,-0.0373,-0.037,-0.0368,-0.0368,-0.0369,-0.0365,-0.0365,-0.0366,-0.0366,-0.0364,-0.0364,-0.0367,-0.0368,-0.0368,-0.0366,0,0,0,0,0,0,-0.0389,-0.0388,-0.0387,-0.0382,-0.038,-0.0374,-0.0374,-0.0373,-0.0371,-0.037,-0.0367,-0.0367,-0.0365,-0.0367,-0.0366,-0.0366,-0.0364,-0.0367,-0.0367,-0.0368,-0.0366,-0.0366,-0.0366,0,0,0,0,0,-0.039,-0.0387,-0.0387,-0.0386,-0.0379,-0.0374,-0.0372,-0.0369,-0.037,-0.0367,-0.0369,-0.0367,-0.0369,-0.0367,-0.0366,-0.0366,-0.0367,-0.0367,-0.0368,-0.0366,-0.0366,-0.0366,0,0,0,0,0,0,-0.0389,-0.0386,-0.0386,-0.0382,-0.0378,-0.0373,-0.037,-0.0369,-0.0368,-0.0369,-0.0368,-0.0368,-0.0369,-0.0369,-0.0367,-0.0369,-0.0368,-0.0368,-0.0367,-0.0367,-0.0367,-0.0366,-0.0364,0,0,0,0,0,-0.0389,-0.0386,-0.0383,-0.0379,-0.0379,-0.0375,-0.0373,-0.0371,-0.0369,-0.0369,-0.0367,-0.0368,-0.037,-0.037,-0.037,-0.037,-0.0373,-0.037,-0.037,-0.0371,-0.037,-0.0378,-0.0379,-0.0369,-0.0369,-0.0369,0,0,-0.0387,-0.0385,-0.0383,-0.0379,-0.0377,-0.0373,-0.0374,-0.037,-0.0367,-0.0369,-0.0364,-0.0368,-0.0371,-0.0371,-0.0372,-0.0371,-0.0375,-0.0371,-0.0371,-0.037,-0.0378,-0.0379,-0.038,-0.037,-0.037,-0.037,0,0,-0.0383,-0.0381,-0.0379,-0.0377,-0.0374,-0.0371,-0.0371,-0.0367,-0.0365,-0.0362,-0.0366,-0.037,-0.0368,-0.0371,-0.0373,-0.0375,-0.0377,-0.0376,-0.0375,-0.0383,-0.0384,-0.0385,-0.0388,-0.0389,-0.0376,-0.0376,-0.0376,0,-0.0382,-0.0379,-0.0377,-0.0375,-0.0372,-0.0371,-0.0367,-0.0364,-0.036,-0.0361,-0.0361,-0.0366,-0.0368,-0.0373,-0.0375,-0.0375,-0.038,-0.0373,-0.0383,-0.0384,-0.0385,-0.0388,-0.0389,-0.0376,-0.0376,-0.0376,-0.0376,0,-0.0378,-0.0375,-0.0373,-0.037,-0.0366,-0.0362,-0.0359,-0.0356,-0.0355,-0.0354,-0.0358,-0.0362,-0.0367,-0.0369,-0.0372,-0.038,-0.0381,-0.0383,-0.0381,-0.0386,-0.0389,-0.039,-0.0376,-0.0376,-0.0376,-0.0376,0,0,-0.0374,-0.0371,-0.037,-0.0368,-0.0363,-0.0359,-0.0354,-0.0351,-0.0351,-0.035,-0.0351,-0.0357,-0.0363,-0.0366,-0.0372,-0.0379,-0.0388,-0.0384,-0.0384,-0.0385,-0.0404,-0.042,-0.0423,-0.0394,-0.0394,-0.0394,-0.0403,0,-0.0372,-0.0368,-0.0366,-0.0358,-0.0355,-0.0352,-0.0347,-0.0345,-0.0345,-0.0345,-0.0352,-0.0356,-0.0361,-0.0366,-0.0374,-0.0385,-0.0392,-0.0385,-0.0401,-0.0401,-0.0414,-0.0426,-0.037,-0.0375,-0.0404,-0.0405,-0.0405,0,-0.0369,-0.0367,-0.0362,-0.0354,-0.0353,-0.0348,-0.0343,-0.0339,-0.0341,-0.0342,-0.0349,-0.0354,-0.0364,-0.0368,-0.0387,-0.0383,-0.0394,-0.0401,-0.0402,-0.0419,-0.0421,-0.0376,-0.0377,-0.0407,-0.0407,-0.0407,-0.0406,0,-0.037,-0.0363,-0.036,-0.0357,-0.035,-0.0347,-0.0342,-0.034,-0.0339,-0.0342,-0.0345,-0.0355,-0.0362,-0.0376,-0.0391,-0.0391,-0.0411,-0.0412,-0.0435,-0.0436,-0.0393,-0.039,-0.0426,-0.0426,-0.0426,-0.0426,-0.0426,0,-0.0369,-0.0364,-0.0361,-0.0359,-0.0352,-0.0347,-0.0343,-0.034,-0.0341,-0.0343,-0.0346,-0.0352,-0.0365,-0.0377,-0.0391,-0.0418,-0.0412,-0.0438,-0.0443,-0.0392,-0.0389,-0.0419,-0.0418,-0.0426,-0.0426,-0.0426,-0.0426,0,-0.0369,-0.0368,-0.0363,-0.0357,-0.0354,-0.035,-0.0341,-0.034,-0.034,-0.0345,-0.0346,-0.0352,-0.037,-0.0382,-0.0404,-0.0421,-0.0442,-0.0452,-0.039,-0.0388,-0.0461,-0.0459,-0.0481,-0.0482,-0.0483,-0.0483,-0.0484,0,-0.0367,-0.0367,-0.0364,-0.0361,-0.0358,-0.0351,-0.0346,-0.0342,-0.0343,-0.0348,-0.0352,-0.0365,-0.0379,-0.0412,-0.0411,-0.0431,-0.0458,-0.0427,-0.0422,-0.0466,-0.0468,-0.0465,-0.0464,-0.0358,-0.0357,-0.0357,-0.0356,0,-0.0363,-0.0367,-0.0364,-0.0363,-0.0359,-0.035,-0.0346,-0.0351,-0.0351,-0.0359,-0.0378,-0.0388,-0.0389,-0.0384,-0.0403,-0.041,-0.0419,-0.042,-0.0473,-0.0363,-0.0353,-0.0354,-0.0355,-0.0352,-0.0352,-0.0352,-0.0353,-0.0353,-0.0362,-0.036,-0.0363,-0.0363,-0.0357,-0.0356,-0.0364,-0.0352,-0.0361,-0.0363,-0.0374,-0.0374,-0.0352,-0.0355,-0.0368,-0.0382,-0.0394,-0.0406,-0.0405,-0.0406,-0.04,-0.0394,-0.0398,-0.0399,-0.0399,-0.04,-0.04,0,-0.0349,-0.0361,-0.0361,-0.036,-0.0347,-0.0355,-0.0367,-0.0359,-0.0368,-0.0367,-0.0362,-0.0333,-0.0311,-0.0324,-0.0321,-0.0339,-0.0313,-0.0365,-0.032,-0.0323,-0.0326,-0.0316,-0.0292,-0.0292,-0.0292,-0.0292,0,0,-0.0346,-0.0342,-0.0346,-0.0342,-0.035,-0.0341,-0.0358,-0.0353,-0.0353,-0.0354,-0.0355,-0.0289,-0.031,-0.029,-0.0283,-0.0304,-0.0322,-0.0304,-0.0381,-0.033,-0.0334,-0.033,-0.0315,0,0,0,0,0]}],[{"header":{"parameterUnit":"m.s-1","parameterCategory":2,"la1":30.2991,"la2":30.254,"lo1":-89.0895,"lo2":-89.0444,"dy":0.0017,"dx":0.0017,"nx":28,"ny":28,"refTime":"2025-11-27T09:00:00:Z","depth":"4","parameterNumber":2,"parameterNumberName":"U-component_of_CURRENTS"},"data":[0,0,0,0,0,0,0,0,0,0,0,0,0,0,0,0,0,0,0,0,0,0,0,0,0,0,0,0,0,0,0,0,0,0,0,0,0,0,0,0,0,0,0,0,0,0,0,0,0,0,0,0,0,0,0,0,0,0,0.007,0.007,0,0.005,0.005,0.005,0.0047,0.0048,0.0048,0.0048,0.004,0.004,0.004,0,0,0,0,0,0,0,0,0,0,0,0,0,0.0093,0.0093,0.007,0.007,0.0069,0.005,0.005,0.0049,0.0047,0.0048,0.0048,0.0048,0.004,0.004,0.0039,0,0,0,0,0,0,0,0,0,0,0,0,0,0.0079,0.0093,0.007,0.0066,0.0065,0.005,0.005,0.0049,0.0047,0.0048,0.0048,0.0048,0.0041,0.004,0.0039,0.003,0,0,0.0038,0.0037,0,0,0,0,0,0,0,0,0.008,0.0078,0.0067,0.0066,0.0066,0.0051,0.0055,0.0043,0.0047,0.0054,0.0048,0.0048,0.0045,0.0044,0.0039,0.003,0.0029,0.0038,0.0037,0.0037,0.0037,0,0,0,0,0,0,0,0.0081,0.0079,0.0062,0.0066,0.0066,0.0061,0.0059,0.0053,0.0048,0.0054,0.0053,0.0051,0.0045,0.004,0.0039,0.0029,0.0038,0.0037,0.0037,0.0037,0.0019,0.0019,0,0,0,0,0,0,0.0083,0.008,0.0063,0.0061,0.0074,0.006,0.0058,0.0056,0.0048,0.0047,0.0051,0.0051,0.0041,0.004,0.0039,0.0034,0.0037,0.0036,0.0036,0.0019,0.0019,0.0019,0,0,0,0,0,0,0.0084,0.0082,0.0064,0.007,0.0068,0.0059,0.0056,0.0055,0.0052,0.0046,0.0045,0.0049,0.0041,0.004,0.0035,0.0034,0.0036,0.0036,0.0019,0.0019,0.0019,0.0021,0,0,0,0,0,0,0.0085,0.0082,0.0081,0.007,0.0067,0.0056,0.0056,0.0055,0.005,0.005,0.0044,0.0044,0.0041,0.0036,0.0034,0.0033,0.0035,0.0019,0.0019,0.0019,0.0021,0.0021,0.0021,0,0,0,0,0,0.0086,0.0082,0.0081,0.0079,0.0066,0.0056,0.0054,0.0049,0.005,0.0048,0.0044,0.0044,0.0033,0.0035,0.0033,0.0032,0.002,0.0019,0.0019,0.0021,0.0021,0.0021,0,0,0,0,0,0,0.0089,0.0081,0.008,0.0074,0.0066,0.0055,0.0052,0.0049,0.0044,0.0045,0.0041,0.004,0.0036,0.0033,0.0035,0.0026,0.0027,0.0026,0.0029,0.0029,0.0029,0.003,0.0035,0,0,0,0,0,0.0089,0.0087,0.0078,0.0073,0.007,0.0061,0.0057,0.0054,0.0047,0.0045,0.0041,0.0037,0.0032,0.003,0.0025,0.0019,0.002,0.0018,0.0018,0.0018,0.0018,0.0017,0.0017,0.0018,0.0018,0.0018,0,0,0.009,0.0085,0.0084,0.0074,0.0068,0.0063,0.0059,0.0053,0.0049,0.0045,0.004,0.0036,0.003,0.0025,0.0023,0.0023,0.0018,0.0017,0.0017,0.0018,0.0016,0.0016,0.0016,0.0018,0.0018,0.0018,0,0,0.009,0.0085,0.0084,0.0078,0.0071,0.0064,0.0063,0.0054,0.005,0.0043,0.004,0.0036,0.0027,0.0024,0.002,0.0016,0.0017,0.0015,0.0015,0.0014,0.0014,0.0014,0.0016,0.0016,0.0015,0.0015,0.0015,0,0.0091,0.0088,0.0082,0.0078,0.0074,0.0066,0.0063,0.0056,0.0046,0.0043,0.0043,0.0031,0.0027,0.002,0.0019,0.0016,0.0016,0.0017,0.0014,0.0014,0.0014,0.0016,0.0017,0.0015,0.0015,0.0015,0.0015,0,0.0091,0.0088,0.0086,0.0081,0.0075,0.0071,0.0061,0.0055,0.0051,0.0044,0.0037,0.0031,0.0025,0.0022,0.0019,0.0015,0.0016,0.0014,0.0016,0.0014,0.0017,0.0017,0.0015,0.0015,0.0015,0.0015,0,0,0.0098,0.0089,0.0089,0.0088,0.0077,0.0073,0.0065,0.0055,0.0051,0.0042,0.0038,0.0028,0.0026,0.0022,0.0018,0.0016,0.0016,0.0015,0.0015,0.0019,0.0016,0.0029,0.003,0.0014,0.0014,0.0014,0.0019,0,0.0102,0.0099,0.0092,0.0089,0.0086,0.0076,0.0069,0.0059,0.0051,0.0044,0.0036,0.003,0.0025,0.0024,0.002,0.0016,0.0016,0.0015,0.0016,0.0016,0.0028,0.0031,0.0014,0.0019,0.0019,0.0019,0.0019,0,0.0108,0.0105,0.0104,0.0095,0.0093,0.0089,0.0079,0.0071,0.0057,0.0051,0.0042,0.0035,0.0028,0.0026,0.002,0.0019,0.0019,0.0016,0.0017,0.0028,0.0029,0.002,0.002,0.002,0.002,0.002,0.002,0,0.0123,0.0114,0.0115,0.0113,0.01,0.0098,0.009,0.0076,0.0071,0.0057,0.0054,0.0041,0.0039,0.0033,0.0027,0.0023,0.0023,0.0018,0.0029,0.003,0.0016,0.0016,0.0017,0.0017,0.0017,0.0017,0.0017,0,0.0133,0.0134,0.0123,0.0125,0.0125,0.0111,0.0109,0.0098,0.0085,0.0081,0.0062,0.0058,0.0041,0.0036,0.003,0.0032,0.0026,0.0032,0.0033,0.0017,0.0017,0.0017,0.0017,0.0017,0.0017,0.0017,0.0017,0,0.0151,0.0144,0.0146,0.0136,0.0134,0.0136,0.0124,0.0121,0.0106,0.0101,0.0098,0.0074,0.0066,0.0053,0.0044,0.0041,0.0039,0.0042,0.003,0.003,0.0046,0.0046,0.0054,0.0054,0.0055,0.0055,0.0056,0,0.016,0.0164,0.0161,0.0163,0.016,0.0158,0.0156,0.0138,0.0134,0.0112,0.0113,0.0098,0.0084,0.0079,0.0063,0.0056,0.0055,0.0055,0.0046,0.005,0.005,0.0049,0.0049,0.0056,0.0056,0.0056,0.0057,0,0.018,0.0182,0.0184,0.0186,0.0188,0.0184,0.0179,0.0179,0.0157,0.0145,0.0127,0.0112,0.0104,0.0087,0.0082,0.0075,0.0053,0.0059,0.0058,0.005,0.0052,0.0052,0.0051,0.0058,0.0058,0.0058,0.0058,0,0.0202,0.0205,0.0208,0.0208,0.0209,0.0206,0.0201,0.0191,0.0182,0.0155,0.0152,0.0128,0.011,0.0098,0.0093,0.0088,0.0084,0.0081,0.0079,0.0077,0.0081,0.0087,0.0107,0,0,0,0,0,0.0223,0.0222,0.0225,0.0223,0.0222,0.0218,0.0213,0.0205,0.0188,0.018,0.0164,0.0153,0.0132,0.0118,0.0116,0.0106,0.0088,0.0104,0.0085,0.0066,0.0064,0.0066,0,0,0,0,0,0,0.0236,0.0241,0.0231,0.0232,0.023,0.0226,0.0222,0.021,0.0202,0.0184,0.0173,0.0155,0.0137,0.0134,0.0116,0.0113,0.0102,0.009,0.009,0.0067,0.0066,0.0064,0.0065,0,0,0,0,0]},{"header":{"parameterUnit":"m.s-1","parameterCategory":2,"la1":30.2991,"la2":30.254,"lo1":-89.0895,"lo2":-89.0444,"dy":0.0017,"dx":0.0017,"nx":28,"ny":28,"refTime":"2025-11-27T09:00:00:Z","depth":"4","parameterNumber":3,"parameterNumberName":"V-component_of_CURRENTS"},"data":[0,0,0,0,0,0,0,0,0,0,0,0,0,0,0,0,0,0,0,0,0,0,0,0,0,0,0,0,0,0,0,0,0,0,0,0,0,0,0,0,0,0,0,0,0,0,0,0,0,0,0,0,0,0,0,0,0,0,0.0081,0.0081,0,0.0069,0.0069,0.0069,0.0065,0.0065,0.0065,0.0065,0.0042,0.0041,0.0041,0,0,0,0,0,0,0,0,0,0,0,0,0,0.01,0.01,0.0081,0.0081,0.0081,0.0069,0.0069,0.0069,0.0065,0.0065,0.0065,0.0065,0.0042,0.0041,0.0041,0,0,0,0,0,0,0,0,0,0,0,0,0,0.0091,0.01,0.0081,0.0077,0.0077,0.0069,0.0069,0.0069,0.0065,0.0065,0.0065,0.0065,0.0042,0.0042,0.0041,0.0034,0,0,0.0038,0.0037,0,0,0,0,0,0,0,0,0.0091,0.009,0.0078,0.0077,0.0077,0.0068,0.0067,0.0056,0.0065,0.007,0.0065,0.0065,0.0049,0.0048,0.0046,0.0033,0.0032,0.0038,0.0037,0.0037,0.0036,0,0,0,0,0,0,0,0.0092,0.0091,0.0077,0.0078,0.0077,0.0075,0.0074,0.0065,0.006,0.007,0.0069,0.0067,0.0049,0.0047,0.0046,0.0032,0.0038,0.0037,0.0036,0.0036,0.0003,0.0003,0,0,0,0,0,0,0.0092,0.0091,0.0077,0.0076,0.0084,0.0075,0.0074,0.0071,0.006,0.0059,0.0067,0.0067,0.0049,0.0047,0.0045,0.0029,0.0037,0.0036,0.0035,0.0003,0.0003,0.0003,0,0,0,0,0,0,0.0093,0.0091,0.0078,0.0083,0.0081,0.0075,0.0072,0.0071,0.0067,0.0058,0.0056,0.0063,0.0049,0.0046,0.0033,0.0028,0.0035,0.0035,0.0004,0.0003,0.0003,0.0002,0,0,0,0,0,0,0.0094,0.0092,0.0089,0.0083,0.0081,0.007,0.0072,0.0071,0.0065,0.0065,0.0054,0.0053,0.0049,0.0034,0.0032,0.0027,0.0034,0.0004,0.0004,0.0003,0.0002,0.0002,0.0001,0,0,0,0,0,0.0094,0.0087,0.0089,0.0087,0.0078,0.007,0.0068,0.0064,0.0065,0.0061,0.0054,0.0053,0.0029,0.0033,0.003,0.0025,0.0004,0.0004,0.0003,0.0003,0.0002,0.0001,0,0,0,0,0,0,0.0091,0.0086,0.0088,0.0079,0.0075,0.0069,0.0063,0.0062,0.0054,0.0052,0.0048,0.0045,0.0032,0.0028,0.0032,0.0014,0.0017,0.0016,0.0018,0.0017,0.0016,0.0016,0.0033,0,0,0,0,0,0.009,0.0085,0.0081,0.0074,0.0071,0.0068,0.0064,0.0061,0.0054,0.0051,0.0045,0.0037,0.0027,0.0021,0.0012,0.0001,-0.0003,-0.0003,-0.0004,-0.0005,-0.0007,-0.0017,-0.0019,0.0,0.0,0.0,0,0,0.0087,0.0083,0.008,0.0073,0.0069,0.0065,0.0065,0.0057,0.0054,0.0049,0.0041,0.0033,0.0023,0.0011,0.0005,0.0007,-0.0012,-0.0006,-0.0006,-0.0008,-0.0018,-0.002,-0.0021,-0.0,0.0,0.0,0,0,0.0078,0.0075,0.0068,0.0065,0.0059,0.0058,0.0055,0.0049,0.0047,0.0038,0.0034,0.0023,0.001,0.0004,-0.0002,-0.0013,-0.0016,-0.0016,-0.002,-0.003,-0.0031,-0.0033,-0.0039,-0.0041,-0.0016,-0.0016,-0.0016,0,0.0074,0.0068,0.0065,0.0059,0.0056,0.0055,0.005,0.0047,0.0039,0.0035,0.0034,0.0014,0.0007,-0.0006,-0.0011,-0.0014,-0.002,-0.0015,-0.0031,-0.0032,-0.0034,-0.0039,-0.0041,-0.0016,-0.0016,-0.0016,-0.0016,0,0.0063,0.0058,0.0052,0.0048,0.0045,0.0038,0.0037,0.0033,0.0032,0.0029,0.0016,0.0006,-0.0006,-0.001,-0.0015,-0.0029,-0.003,-0.003,-0.0027,-0.0036,-0.0041,-0.0043,-0.0017,-0.0016,-0.0016,-0.0016,0,0,0.0057,0.0047,0.0046,0.0044,0.0039,0.0036,0.0031,0.0027,0.0023,0.0016,0.0009,-0.0007,-0.0012,-0.0019,-0.0026,-0.0034,-0.0049,-0.0039,-0.0039,-0.0042,-0.0071,-0.0069,-0.0071,-0.0053,-0.0054,-0.0054,-0.007,0,0.0051,0.0039,0.0036,0.003,0.0026,0.0025,0.0022,0.0019,0.0015,0.0008,-0.0001,-0.0012,-0.0015,-0.0024,-0.0034,-0.0046,-0.0056,-0.0045,-0.0064,-0.0065,-0.006,-0.0074,-0.0056,-0.0071,-0.0072,-0.0072,-0.0072,0,0.0045,0.0038,0.0029,0.0024,0.0022,0.0018,0.0015,0.0011,0.0003,-0.0002,-0.0013,-0.002,-0.0035,-0.0035,-0.0059,-0.0054,-0.0065,-0.0072,-0.0072,-0.0072,-0.0067,-0.0062,-0.0076,-0.0076,-0.0076,-0.0075,-0.0075,0,0.0047,0.0035,0.0029,0.0026,0.0019,0.0016,0.0013,0.0006,0.0002,-0.0009,-0.0016,-0.0031,-0.0042,-0.0056,-0.0072,-0.0069,-0.0095,-0.0092,-0.0099,-0.0099,-0.0094,-0.0093,-0.011,-0.011,-0.011,-0.011,-0.011,0,0.0045,0.0041,0.0028,0.0025,0.002,0.0014,0.0008,0.0003,-0.0007,-0.0014,-0.0023,-0.0032,-0.0049,-0.0064,-0.0076,-0.0095,-0.0099,-0.0104,-0.0105,-0.0094,-0.0092,-0.0096,-0.0094,-0.011,-0.011,-0.011,-0.011,0,0.0051,0.0042,0.0034,0.0023,0.002,0.0016,0.0007,0.0003,-0.0009,-0.0019,-0.0023,-0.0038,-0.0057,-0.0071,-0.0095,-0.0101,-0.0117,-0.0122,-0.0109,-0.0108,-0.0112,-0.011,-0.0133,-0.0133,-0.0133,-0.0133,-0.0133,0,0.0055,0.0049,0.0035,0.0032,0.0027,0.002,0.0016,0.0005,-0.0001,-0.0021,-0.0025,-0.0046,-0.0056,-0.0085,-0.01,-0.0122,-0.0123,-0.0131,-0.0124,-0.0117,-0.0116,-0.0114,-0.0112,-0.0133,-0.0133,-0.0133,-0.0133,0,0.0065,0.0056,0.0048,0.0038,0.0033,0.0029,0.0021,0.0015,-0.0,-0.0012,-0.003,-0.0046,-0.0067,-0.0085,-0.0103,-0.0117,-0.0126,-0.0133,-0.0132,-0.0125,-0.0118,-0.0116,-0.0114,-0.0134,-0.0134,-0.0134,-0.0134,0,0.008,0.007,0.0056,0.0047,0.0042,0.0039,0.0033,0.0021,0.0011,-0.0016,-0.0021,-0.0044,-0.006,-0.0083,-0.0099,-0.0114,-0.0116,-0.0118,-0.0118,-0.0118,-0.0108,-0.0096,-0.0111,0,0,0,0,0,0.0104,0.0084,0.0069,0.006,0.0053,0.0051,0.0037,0.0029,0.0009,-0.0002,-0.0013,-0.0032,-0.0061,-0.0073,-0.0087,-0.0097,-0.0115,-0.0114,-0.0117,-0.0136,-0.0135,-0.0126,0,0,0,0,0,0,0.0126,0.0102,0.0072,0.007,0.0067,0.0065,0.0056,0.0043,0.0032,0.001,-0.0004,-0.0027,-0.0052,-0.0046,-0.0082,-0.0088,-0.0091,-0.0132,-0.0132,-0.0136,-0.0136,-0.0135,-0.0126,0,0,0,0,0]}]]